SCP
-0 -0 -0 -0 -0 -0 -0 -0 -0 -0 -0 -0 -0 -0 -0 -0 0 -0 -0 -0 -0 0 0 0 0 0 0 0 -0 0 0 0 0 0 0 0 0 0 0 0 0 0 0 0 0 0 0 0 0 0 0 0 0 0
-0 -0 -0 -0 -0 -0 -0 -0 -0 -0 -0 -0 -0 -0 -0 -0 -0 0 0 0 -0 -0 0 0 0 -0 -0 0 0 -0 0 0 0 0 0 0 0 0 0 0 0 0 0 0 0 0 0 0 0 0 0 0 0 0
-0 -0 -0 -0 -0 -0 -0 -0 -0 -0 -0 -0 -0 -0 -0 -0 -0 -0 0 0 0 0 0 0 0 -0 -0 -0 -0 0 -0 -0 0 0 0 0 0 0 0 0 0 0 0 0 0 0 0 0 0 0 0 0 0 0
-0 -0 -0 -0 -0 -0 0 -0 -0 -0 -0 -0 -0 -0 -0 -0 -0 -0 0 0 0 0 0 0 -0 -0 -0 -0 -0 -0 -0 -0 -0 -0 -0 -0 -0 -0 -0 -0 -0 -0 0 0 0 0 -0 -0 0 0 0 0 0 0
0 -0 -0 -0 -0 -0 -0 -0 -0 -0 -0 -0 -0 -0 -0 0 0 0 0 0 -0 0 0 0 0 -0 -0 0 -0 -0 -0 0 -0 -0 -0 -0 -0 -0 -0 -0 -0 0 -0 0 -0 0 0 0 0 0 0 0 0 0
-0 -0 -0 -0 0 -0 -0 -0 -0 -0 -0 -0 -0 0 -0 -0 0 0 -0 -0 -0 0 0 0 0 -0 -0 -0 0 -0 0 0 0 0 -0 -0 -0 -0 0 0 0 0 -0 -0 -0 -0 0 0 0 0 0 0 0 0
-0 -0 -0 -0 -0 -0 -0 -0 -0 -0 -0 -0 0 -0 -0 -0 0 0 0 0 0 0 0 0 0 -0 -0 0 0 0 0 0 0 0 0 0 0 -0 0 0 0 -0 -0 -0 0 0 0 0 0 0 0 0 0 0
-0 -0 -0 -0 -0 -0 -0 0 -0 -0 -0 -0 -0 -0 -0 -0 -0 0 -0 0 0 0 0 0 0 0 -0 0 0 -0 0 0 0 0 0 0 -0 0 -0 -0 0 0 -0 -0 0 0 0 0 0 0 0 0 0 0
-0 -0 -0 -0 -0 -0 -0 0 -0 -0 -0 -0 -0 -0 -0 -0 0 0 -0 0 0 -0 0 0 0 0 0 0 0 0 0 0 0 0 0 0 0 -0 -0 -0 0 0 0 0 0 0 0 0 0 0 0 0 0 0
-0 -0 -0 -0 -0 -0 -0 0 0 0 -0 -0 -0 -0 -0 -0 0 0 -0 0 -0 0 0 0 0 0 0 0 0 0 0 0 0 0 0 0 0 -0 -0 -0 0 0 0 0 0 0 0 0 0 0 0 0 0 0
-0 -0 -0 0 0 0 0 0 -0 -0 0 0 0 0 0 -0 0 -0 -0 -0 -0 0 0 0 0 0 0 0 0 0 0 0 0 0 0 0 0 0 -0 0 0 0 0 0 0 0 0 0 0 0 0 0 0 0
-0 0 0 0 0 0 0 0 0 0 0 0 0 0 0 0 0 -0 -0 -0 -0 -0 0 0 0 0 0 0 0 0 0 0 0 0 0 0 0 0 0 0 0 0 0 0 0 0 0 0 0 0 0 0 0 0
0 0 0 0 0 0 0 0 0 -0 0 0 0 0 0 0 0 0 0 0 -0 0 0 0 0 0 0 0 0 0 0 0 0 0 0 -0 0 0 0 0 0 0 0 0 0 0 0 0 0 0 0 0 0 0
0 0 0 0 0 0 0 0 0 0 0 0 0 0 0 0 0 0 0 0 0 0 0 0 0 0 0 0 0 0 0 0 0 0 0 0 0 0 0 0 0 0 0 0 0 0 0 0 0 0 0 0 0 0
0 0 0 0 0 0 0 0 0 0 0 0 0 0 0 0 0 0 0 0 0 0 0 0 0 0 0 0 0 0 0 0 0 0 0 0 0 0 0 0 0 0 0 0 0 0 0 0 0 0 0 0 0 0
0 0 0 0 0 0 0 0 0 0 0 0 0 0 0 0 0 0 0 0 0 0 0 0 0 0 0 0 0 0 0 0 0 0 0 0 0 0 0 0 0 0 0 0 0 0 0 0 0 0 0 0 0 0
0 0 0 0 0 0 0 0 0 0 0 0 0 0 0 0 0 0 0 0 0 0 0 0 0 0 0 0 0 0 0 0 0 0 0 0 0 0 0 0 0 0 0 0 0 0 0 0 0 0 0 0 0 0
0 0 0 0 0 0 0 0 0 0 0 0 0 0 0 0 0 0 0 0 0 0 0 0 0 0 0 0 0 0 0 0 0 0 0 0 0 0 0 0 0 0 0 0 0 0 0 0 0 0 0 0 0 0
0 0 0 0 0 0 0 0 0 0 0 0 0 0 0 0 0 0 0 0 0 0 0 0 0 0 0 0 0 0 0 0 0 0 0 0 0 0 0 0 0 0 0 0 0 0 0 0 0 0 0 0 0 0
0 0 0 0 0 0 0 0 0 0 0 0 0 0 0 0 0 0 0 0 0 0 0 0 0 0 0 0 0 0 0 0 0 0 0 0 0 0 0 0 0 0 0 0 0 0 0 0 0 0 0 0 0 0
0 0 0 0 0 0 0 0 0 0 0 0 0 0 0 0 0 0 0 0 0 0 0 0 0 0 0 0 0 0 0 0 0 0 0 0 0 0 0 0 0 0 0 0 0 0 0 0 0 0 0 0 0 0
0 0 0 0 0 0 0 0 0 0 0 0 0 0 0 0 0 0 0 0 0 0 0 0 0 0 0 0 0 0 0 0 0 0 0 0 0 0 0 0 0 0 0 0 0 0 0 0 0 0 0 0 0 0
0 0 0 0 0 0 0 0 0 0 0 0 0 0 0 0 0 0 0 0 0 0 0 0 0 0 0 0 0 0 0 0 0 0 0 0 0 0 0 0 0 0 0 0 0 0 0 0 0 0 0 0 0 0
0 0 0 0 0 0 0 0 0 0 0 0 0 0 0 0 0 0 0 0 0 0 0 0 0 0 0 0 0 0 0 0 0 0 0 0 0 0 0 0 0 0 0 0 0 0 0 0 0 0 0 0 0 0
0 0 0 0 0 0 0 0 0 0 0 0 0 0 0 0 0 0 0 0 0 0 0 0 0 0 0 0 0 0 0 0 0 0 0 0 0 0 0 0 0 0 0 0 0 0 0 0 0 0 0 0 0 0
0 0 0 0 0 0 0 0 0 0 0 0 0 0 0 0 0 0 0 0 -0 0 0 0 0 0 0 0 0 0 0 0 0 0 0 0 0 0 0 0 0 0 0 0 0 0 0 0 0 0 0 0 0 0
0 0 0 0 0 0 0 0 0 0 0 0 0 0 0 0 0 0 0 0 0 0 0 0 0 0 0 0 0 0 0 0 0 0 0 0 0 0 0 0 0 0 0 0 0 0 0 0 0 0 0 0 0 0
0 0 0 0 0 0 0 0 0 0 0 0 0 0 0 0 0 0 0 0 0 0 0 0 0 0 0 0 0 0 0 0 0 0 0 0 0 0 0 0 0 0 0 0 0 0 0 0 0 0 0 0 0 0
0 0 0 0 0 0 0 0 0 0 0 0 0 0 0 0 0 0 0 0 0 0 0 0 0 0 0 0 0 0 0 0 0 0 0 0 0 0 0 0 0 0 0 0 0 0 0 0 0 0 0 0 0 0
0 0 0 0 0 0 0 0 0 0 0 0 0 0 0 0 0 0 0 0 0 0 0 0 0 0 0 0 0 0 0 0 0 0 0 0 0 0 0 0 0 0 0 0 0 0 0 0 0 0 0 0 0 0
0 0 0 0 0 0 0 0 0 0 0 0 0 0 0 0 0 0 0 0 0 0 0 0 0 0 0 0 0 0 0 0 0 0 0 0 0 0 0 0 0 0 0 0 0 0 0 0 0 0 0 0 0 0
0 0 0 0 0 0 0 0 0 0 0 0 0 0 0 0 0 0 0 0 0 0 0 0 0 0 0 0 0 0 0 0 0 0 0 0 0 0 0 0 0 0 0 0 0 0 0 0 0 0 0 0 0 0
0 0 0 0 0 0 0 0 0 0 0 0 0 0 0 0 0 0 0 0 0 0 0 0 0 0 0 0 0 0 0 0 0 0 0 0 0 0 0 0 0 0 0 0 0 0 0 0 0 0 0 0 0 0
Wind_Speed_500mb
7 5 6 11 13 13 12 10 8 7 4 5 11 11 3 9 12 11 9 4 3 10 15 9 6 8 12 11 7 11 11 2 4 7 7 6 6 8 3 3 11 16 16 11 12 13 22 16 8 18 9 15 6 12
5 7 5 5 5 5 15 15 12 11 11 16 18 21 15 10 12 12 4 0 13 8 12 15 10 9 14 18 10 23 2 11 14 6 3 5 4 6 7 6 5 9 13 10 20 15 7 11 7 10 6 5 4 5
5 4 6 6 3 5 6 3 11 11 9 9 8 17 15 9 12 10 4 5 11 8 9 7 9 13 14 12 18 11 7 12 12 10 10 3 6 7 10 12 7 12 15 8 4 19 29 34 31 28 16 11 9 13
9 7 6 6 4 3 4 4 2 4 7 5 1 9 12 12 11 9 4 4 8 7 7 6 12 11 18 19 18 15 12 15 12 12 5 4 5 11 6 5 9 7 15 11 16 23 22 37 34 23 21 14 17 26
11 8 6 6 8 8 6 5 4 3 1 4 9 12 14 13 12 14 12 9 14 6 4 10 10 15 15 20 24 20 18 16 11 8 5 6 5 4 4 4 13 26 22 14 18 22 20 8 14 24 21 24 29 28
14 11 9 5 7 4 8 10 11 9 4 6 6 8 17 17 16 11 4 3 15 12 3 3 5 4 9 14 17 19 23 17 11 8 6 8 8 5 5 9 19 37 51 59 42 34 32 21 13 19 30 25 22 22
14 10 7 6 5 5 8 10 13 15 11 3 6 8 11 12 11 11 5 9 20 11 3 5 3 4 9 13 10 10 13 6 9 5 8 5 6 11 6 10 15 23 37 40 42 39 32 38 27 21 20 31 34 33
13 10 7 6 6 6 7 8 11 14 13 9 2 5 9 14 11 10 15 13 20 6 4 6 1 4 12 7 5 8 6 8 7 6 4 1 5 8 12 43 30 32 29 29 32 34 37 31 25 30 32 30 33 35
14 10 7 5 3 2 6 8 9 14 14 8 3 1 7 8 7 5 10 18 20 9 3 6 9 6 17 7 7 9 6 4 4 4 2 3 5 15 28 34 39 36 24 14 23 37 37 37 35 30 33 36 36 31
15 12 9 6 4 4 3 6 8 11 14 11 6 2 3 4 7 8 4 6 9 9 8 4 11 6 9 9 5 7 3 0 4 1 6 6 10 64 72 65 58 45 29 29 29 27 28 33 31 34 35 30 29 31
22 18 15 12 10 8 7 8 5 6 5 2 0 3 4 8 5 4 3 2 2 3 8 9 10 8 11 6 7 4 3 1 3 1 4 4 8 13 14 10 15 27 49 61 52 43 40 38 35 35 31 30 32 33
29 24 21 18 15 13 11 10 9 5 5 7 9 7 7 5 4 5 1 2 4 7 12 12 11 9 11 9 8 4 5 2 7 3 1 7 10 27 18 9 11 12 12 19 29 36 39 39 38 37 35 33 32 31
31 27 24 21 19 17 14 13 11 8 8 4 6 9 7 3 5 10 10 6 5 19 24 19 8 10 9 7 12 4 6 6 2 3 8 11 19 14 13 18 25 22 21 21 22 24 27 31 34 35 35 33 33 30
36 32 28 26 24 21 19 19 13 7 3 5 9 5 8 6 10 10 8 7 11 12 39 30 16 6 7 6 3 6 3 2 1 5 12 6 24 21 34 29 26 23 25 27 28 29 31 34 36 39 38 35 33 31
43 39 35 32 29 24 24 22 16 10 8 8 8 8 13 14 11 8 18 8 15 43 45 21 14 6 3 7 3 7 3 9 12 11 7 19 17 23 23 28 32 29 28 26 26 30 34 39 44 42 39 36 35 35
46 35 44 38 34 30 33 25 20 13 8 11 15 4 12 3 8 17 25 19 35 54 21 8 8 6 4 7 8 15 10 15 9 9 38 27 29 26 27 30 34 33 31 31 34 36 41 45 44 40 37 37 37 37
43 57 49 38 38 39 37 31 17 14 13 12 14 31 23 10 10 12 26 30 53 39 6 9 10 12 9 2 8 11 13 10 24 35 26 29 32 29 31 38 37 36 38 38 41 43 42 39 37 36 37 35 37 35
59 61 51 32 54 52 47 33 13 15 19 28 13 21 30 30 18 21 28 43 51 34 24 12 22 10 13 13 10 12 46 48 41 30 27 34 36 35 40 42 41 42 43 44 42 41 38 37 39 39 38 37 33 30
66 63 50 52 54 52 21 24 24 14 41 14 29 31 28 25 41 35 32 49 52 37 16 21 9 10 15 17 22 32 37 45 45 44 45 45 48 43 42 46 50 48 46 44 43 41 40 41 40 37 33 30 26 25
59 55 58 46 48 34 15 17 24 17 15 21 30 24 19 21 33 36 41 49 57 20 14 11 15 33 26 59 54 54 51 54 53 54 56 47 43 41 46 52 49 45 45 45 45 44 42 37 32 27 25 23 22 22
61 64 52 53 68 42 18 15 23 14 11 16 18 23 14 20 21 24 30 49 35 18 9 63 78 93 87 87 81 77 80 74 75 70 69 63 53 51 47 47 46 47 47 46 44 39 35 30 27 23 21 20 19 17
74 84 69 84 30 28 26 27 15 16 15 9 21 22 11 9 16 21 26 37 24 52 55 65 80 91 107 116 118 111 106 97 90 83 79 76 71 60 54 51 51 49 46 42 37 33 28 26 22 20 19 18 16 14
66 84 52 44 23 36 17 33 25 25 8 14 19 7 7 12 15 28 17 26 31 70 78 82 94 100 111 113 110 106 100 98 100 93 80 71 64 60 53 48 44 43 38 33 30 28 24 22 22 20 19 17 15 13
81 60 40 36 41 15 23 24 14 15 10 9 10 9 7 14 21 9 10 16 62 67 66 78 83 88 95 101 100 95 89 84 81 78 72 69 64 60 53 46 38 35 31 28 27 26 26 25 23 22 19 16 14 12
44 32 26 16 33 15 13 12 10 6 8 8 8 8 7 16 6 9 10 12 48 69 79 78 82 81 80 84 81 78 71 62 58 58 51 47 49 45 43 39 35 32 31 31 30 29 28 27 24 22 19 18 16 16
27 32 32 29 33 17 19 16 22 15 10 13 15 12 11 6 8 16 8 16 46 61 66 63 57 56 58 58 62 61 53 42 35 34 31 31 32 35 35 37 39 39 35 32 30 29 28 26 24 22 21 21 21 17
23 16 32 66 46 30 12 12 16 9 16 19 12 14 10 11 15 10 16 30 28 31 31 31 38 37 43 43 38 36 29 24 23 22 22 25 32 34 34 34 36 29 32 31 29 26 24 24 25 26 27 26 23 19
16 32 37 46 24 49 25 12 17 23 14 21 27 16 23 21 13 9 14 15 17 17 20 19 14 16 23 26 30 27 21 17 17 19 22 27 33 36 36 35 31 28 29 30 26 25 25 25 27 29 28 25 22 19
9 34 58 25 22 11 18 27 23 28 46 42 20 14 13 16 12 14 15 15 16 17 16 13 14 17 23 25 22 18 17 19 23 30 36 43 49 43 39 34 31 31 30 27 25 27 29 30 30 28 25 23 20 16
10 40 16 22 25 30 26 41 38 48 54 39 26 19 18 14 11 8 10 12 14 17 15 13 15 18 18 17 16 19 24 27 29 29 37 41 37 37 33 32 31 32 30 29 33 37 36 34 32 30 28 24 19 13
8 39 10 8 8 7 25 26 25 29 36 26 19 17 19 20 18 14 10 3 7 9 11 11 11 11 11 13 16 18 25 31 25 25 29 30 31 28 32 31 32 31 30 33 35 35 34 33 31 29 26 21 15 8
21 12 14 22 6 16 26 11 14 10 10 9 8 13 14 11 10 11 32 18 8 6 7 8 10 11 12 15 19 20 21 35 35 27 26 26 29 32 33 35 33 33 36 39 38 36 34 31 30 28 23 17 10 6
7 11 9 7 5 6 10 13 9 7 14 9 11 10 11 11 8 17 26 33 24 20 16 13 13 15 17 18 20 22 23 22 31 39 32 24 29 36 39 38 35 38 39 39 37 35 35 32 28 23 17 11 9 13
Wind_Direction_500mb
127 137 178 205 219 225 238 260 279 297 298 255 238 226 264 357 10 5 13 52 82 99 145 177 139 138 149 169 154 150 112 131 95 171 180 180 201 199 183 230 177 176 172 190 192 212 258 226 134 214 303 334 68 89
136 128 146 119 107 217 232 236 240 253 276 292 273 230 234 284 318 319 325 59 86 100 139 151 196 211 189 187 147 168 28 160 161 145 197 123 181 169 190 224 181 222 204 189 201 209 244 212 217 264 351 351 47 14
148 125 131 145 134 77 63 210 231 239 257 311 317 181 205 260 297 301 328 133 114 132 143 171 197 197 200 195 183 170 224 188 161 149 149 155 226 151 188 228 228 233 217 244 250 230 242 259 253 238 254 259 272 284
150 136 85 60 65 58 43 31 66 223 242 250 193 194 213 237 255 267 272 222 152 151 141 169 171 180 203 210 206 190 179 187 177 194 182 182 227 198 227 285 233 217 165 207 250 268 277 264 250 235 223 234 289 291
158 145 112 92 51 29 51 9 331 311 277 237 230 232 236 236 256 281 286 259 193 204 151 150 177 202 205 204 214 209 185 179 164 168 185 218 215 198 230 293 244 203 220 215 248 239 232 252 233 226 231 279 286 281
150 155 147 122 90 40 36 21 22 21 325 270 257 246 249 242 247 269 295 231 189 180 183 125 133 149 195 196 194 205 196 192 187 191 212 231 215 217 261 255 256 237 231 235 245 268 253 256 228 238 270 268 266 279
150 141 131 128 100 42 35 24 23 17 8 336 249 241 238 247 232 211 215 182 177 183 202 91 73 167 166 167 164 165 171 192 209 221 232 239 192 200 244 249 219 242 242 245 243 248 248 247 252 254 261 269 270 271
167 165 153 122 83 63 37 27 24 24 15 6 339 194 185 197 244 257 234 197 177 208 207 121 129 175 173 162 139 179 180 192 214 253 262 271 262 231 254 241 249 253 251 248 247 249 248 252 245 254 262 260 266 272
181 181 187 199 188 71 43 37 31 20 21 7 0 200 184 206 225 230 199 201 212 221 206 161 158 175 164 145 128 147 172 198 253 246 125 262 217 227 235 251 245 246 232 241 231 234 234 240 253 249 262 264 267 268
196 198 206 217 250 275 299 348 16 11 5 5 0 60 134 147 154 143 135 168 170 198 220 164 141 135 152 160 122 125 158 217 234 287 306 224 255 254 254 253 256 255 240 239 237 227 224 231 253 272 265 260 263 270
212 218 222 229 236 247 259 276 317 348 5 346 289 178 175 170 174 174 163 107 283 274 197 155 172 138 171 153 161 174 145 87 243 162 263 257 268 246 255 262 241 242 241 244 247 248 254 259 256 259 261 261 265 268
219 225 231 234 236 239 242 243 270 262 274 271 257 174 168 169 138 91 233 310 206 227 172 153 153 130 146 152 126 152 140 146 233 337 254 259 250 252 237 246 211 204 207 224 238 245 246 247 248 248 251 259 267 269
228 235 241 244 246 244 238 230 257 282 297 275 165 156 164 170 52 164 208 250 258 177 176 161 141 147 131 148 85 140 157 214 131 203 237 235 256 254 236 228 225 224 227 229 230 234 239 244 249 251 255 262 266 266
233 236 241 245 243 235 224 236 241 260 262 222 187 241 181 217 239 194 189 190 175 166 156 141 117 136 127 93 115 137 59 294 243 250 237 244 244 233 232 235 225 224 236 239 240 245 251 255 259 258 260 261 265 268
234 236 237 237 234 224 217 229 229 230 227 227 192 233 213 229 237 215 204 173 163 155 149 124 100 140 82 102 36 114 98 244 221 231 230 239 210 219 230 225 228 237 236 241 249 257 263 264 265 263 258 260 266 267
231 231 230 229 220 203 207 208 210 213 238 235 229 232 215 206 220 208 204 190 168 160 152 133 116 100 195 133 156 214 168 223 236 215 234 221 217 227 224 228 231 228 235 247 259 270 272 270 268 261 257 265 269 268
213 226 236 224 201 196 205 201 201 216 225 232 250 230 220 256 233 193 191 177 171 166 188 143 155 201 109 150 238 195 211 217 214 224 228 224 222 230 236 232 231 242 252 263 273 274 274 268 261 263 271 273 268 266
215 229 225 200 191 192 197 200 221 227 233 230 224 237 223 227 226 213 197 181 170 191 168 201 140 183 204 198 229 223 229 239 245 244 244 234 238 243 242 238 240 250 260 263 265 265 263 265 271 278 274 269 265 261
223 220 214 205 198 183 195 210 216 244 226 221 229 235 230 234 232 232 212 196 193 187 182 175 215 208 220 220 236 250 248 254 263 270 271 267 253 254 245 246 254 258 259 259 260 265 269 274 277 273 267 261 253 250
216 218 211 210 200 186 213 216 203 236 221 212 220 217 217 231 236 231 221 206 197 191 208 214 220 232 227 239 253 265 274 280 274 270 270 271 269 260 259 259 257 255 252 256 262 269 274 273 269 261 252 244 239 242
203 206 206 197 194 196 221 218 211 229 217 203 207 194 205 228 227 215 214 206 195 220 242 231 242 249 253 258 263 268 271 272 272 277 283 283 278 271 261 253 251 249 253 260 267 267 264 261 254 246 237 232 229 230
198 195 181 190 189 200 233 227 215 183 202 194 178 187 190 199 207 199 196 194 225 235 236 243 246 253 258 260 264 267 273 276 277 276 276 276 273 270 265 258 249 252 258 262 258 257 252 244 236 227 221 216 215 222
189 184 185 187 192 204 234 195 191 194 180 183 160 180 219 211 199 173 234 224 238 244 248 250 254 259 261 265 265 268 272 277 279 280 281 278 273 265 257 257 257 256 251 248 244 236 228 219 210 205 203 205 217 231
190 179 187 183 193 208 176 188 185 152 123 153 163 224 206 192 168 195 254 258 252 254 253 256 259 258 260 261 265 273 278 282 281 281 279 269 263 258 255 253 246 237 237 228 214 204 199 197 196 197 203 210 215 215
180 189 188 187 193 154 173 161 154 171 182 172 178 236 184 160 183 233 227 252 249 248 249 251 254 256 262 270 275 278 281 284 283 281 278 266 254 246 237 228 227 222 213 202 197 194 193 193 198 199 200 198 194 184
200 191 176 190 193 168 189 150 181 168 151 183 215 129 150 157 207 249 216 232 234 240 245 250 257 261 263 267 274 281 285 279 275 269 264 244 233 226 228 224 212 201 195 193 196 197 198 197 196 195 193 183 172 170
202 166 187 202 186 165 104 91 138 145 173 197 161 163 159 208 234 244 229 234 229 233 243 251 254 264 267 272 278 282 282 271 253 253 230 220 216 215 212 205 192 188 191 193 193 197 202 199 194 184 176 170 170 173
185 171 187 188 192 196 184 158 165 193 185 151 137 175 184 201 226 201 208 208 214 222 218 224 235 270 278 290 287 287 278 246 224 210 205 198 191 185 183 182 184 188 188 184 190 198 197 190 181 174 172 173 169 160
185 172 184 187 202 180 203 196 206 204 171 167 176 190 207 189 188 197 201 216 221 216 214 240 273 298 290 284 278 261 228 213 206 194 189 182 178 180 179 179 186 185 179 181 193 187 180 175 174 171 170 167 164 162
194 180 200 175 199 204 212 210 222 208 199 200 190 156 142 141 150 190 216 217 215 225 247 268 269 268 268 263 250 223 208 204 203 208 203 196 183 186 184 182 183 181 180 190 191 182 179 177 173 173 171 169 170 171
323 188 173 158 200 204 207 195 182 171 176 172 169 160 143 140 135 77 43 275 250 251 247 248 257 259 251 230 216 217 213 202 201 202 204 201 197 184 183 185 182 184 190 188 179 177 176 174 175 175 171 169 172 190
338 338 230 193 167 130 142 133 124 109 106 106 88 104 117 105 79 54 17 16 352 308 293 270 248 240 231 220 210 205 208 204 199 193 194 202 206 194 182 182 186 186 185 179 177 176 175 174 173 174 175 177 192 249
323 0 42 95 107 135 146 105 78 78 53 70 60 73 67 84 94 34 22 17 16 4 341 308 272 253 241 232 222 213 206 202 206 212 215 207 200 187 182 184 182 184 181 179 178 176 175 174 177 179 181 201 251 289
Wind_Speed_850mb
7 5 6 11 13 13 12 10 8 7 4 5 11 11 3 9 12 11 9 4 3 10 15 9 6 8 12 11 7 11 11 2 4 7 7 6 6 8 3 3 11 16 16 11 12 13 22 16 8 18 9 15 6 12
5 7 5 5 5 5 15 15 12 11 11 16 18 21 15 10 12 12 4 0 13 8 12 15 10 9 14 18 10 23 2 11 14 6 3 5 4 6 7 6 5 9 13 10 20 15 7 11 7 10 6 5 4 5
5 4 6 6 3 5 6 3 11 11 9 9 8 17 15 9 12 10 4 5 11 8 9 7 9 13 14 12 18 11 7 12 12 10 10 3 6 7 10 12 7 12 15 8 4 19 29 34 31 28 16 11 9 13
9 7 6 6 4 3 4 4 2 4 7 5 1 9 12 12 11 9 4 4 8 7 7 6 12 11 18 19 18 15 12 15 12 12 5 4 5 11 6 5 9 7 15 11 16 23 22 37 34 23 21 14 17 26
11 8 6 6 8 8 6 5 4 3 1 4 9 12 14 13 12 14 12 9 14 6 4 10 10 15 15 20 24 20 18 16 11 8 5 6 5 4 4 4 13 26 22 14 18 22 20 8 14 24 21 24 29 28
14 11 9 5 7 4 8 10 11 9 4 6 6 8 17 17 16 11 4 3 15 12 3 3 5 4 9 14 17 19 23 17 11 8 6 8 8 5 5 9 19 37 51 59 42 34 32 21 13 19 30 25 22 22
14 10 7 6 5 5 8 10 13 15 11 3 6 8 11 12 11 11 5 9 20 11 3 5 3 4 9 13 10 10 13 6 9 5 8 5 6 11 6 10 15 23 37 40 42 39 32 38 27 21 20 31 34 33
13 10 7 6 6 6 7 8 11 14 13 9 2 5 9 14 11 10 15 13 20 6 4 6 1 4 12 7 5 8 6 8 7 6 4 1 5 8 12 43 30 32 29 29 32 34 37 31 25 30 32 30 33 35
14 10 7 5 3 2 6 8 9 14 14 8 3 1 7 8 7 5 10 18 20 9 3 6 9 6 17 7 7 9 6 4 4 4 2 3 5 15 28 34 39 36 24 14 23 37 37 37 35 30 33 36 36 31
15 12 9 6 4 4 3 6 8 11 14 11 6 2 3 4 7 8 4 6 9 9 8 4 11 6 9 9 5 7 3 0 4 1 6 6 10 64 72 65 58 45 29 29 29 27 28 33 31 34 35 30 29 31
22 18 15 12 10 8 7 8 5 6 5 2 0 3 4 8 5 4 3 2 2 3 8 9 10 8 11 6 7 4 3 1 3 1 4 4 8 13 14 10 15 27 49 61 52 43 40 38 35 35 31 30 32 33
29 24 21 18 15 13 11 10 9 5 5 7 9 7 7 5 4 5 1 2 4 7 12 12 11 9 11 9 8 4 5 2 7 3 1 7 10 27 18 9 11 12 12 19 29 36 39 39 38 37 35 33 32 31
31 27 24 21 19 17 14 13 11 8 8 4 6 9 7 3 5 10 10 6 5 19 24 19 8 10 9 7 12 4 6 6 2 3 8 11 19 14 13 18 25 22 21 21 22 24 27 31 34 35 35 33 33 30
36 32 28 26 24 21 19 19 13 7 3 5 9 5 8 6 10 10 8 7 11 12 39 30 16 6 7 6 3 6 3 2 1 5 12 6 24 21 34 29 26 23 25 27 28 29 31 34 36 39 38 35 33 31
43 39 35 32 29 24 24 22 16 10 8 8 8 8 13 14 11 8 18 8 15 43 45 21 14 6 3 7 3 7 3 9 12 11 7 19 17 23 23 28 32 29 28 26 26 30 34 39 44 42 39 36 35 35
46 35 44 38 34 30 33 25 20 13 8 11 15 4 12 3 8 17 25 19 35 54 21 8 8 6 4 7 8 15 10 15 9 9 38 27 29 26 27 30 34 33 31 31 34 36 41 45 44 40 37 37 37 37
43 57 49 38 38 39 37 31 17 14 13 12 14 31 23 10 10 12 26 30 53 39 6 9 10 12 9 2 8 11 13 10 24 35 26 29 32 29 31 38 37 36 38 38 41 43 42 39 37 36 37 35 37 35
59 61 51 32 54 52 47 33 13 15 19 28 13 21 30 30 18 21 28 43 51 34 24 12 22 10 13 13 10 12 46 48 41 30 27 34 36 35 40 42 41 42 43 44 42 41 38 37 39 39 38 37 33 30
66 63 50 52 54 52 21 24 24 14 41 14 29 31 28 25 41 35 32 49 52 37 16 21 9 10 15 17 22 32 37 45 45 44 45 45 48 43 42 46 50 48 46 44 43 41 40 41 40 37 33 30 26 25
59 55 58 46 48 34 15 17 24 17 15 21 30 24 19 21 33 36 41 49 57 20 14 11 15 33 26 59 54 54 51 54 53 54 56 47 43 41 46 52 49 45 45 45 45 44 42 37 32 27 25 23 22 22
61 64 52 53 68 42 18 15 23 14 11 16 18 23 14 20 21 24 30 49 35 18 9 63 78 93 87 87 81 77 80 74 75 70 69 63 53 51 47 47 46 47 47 46 44 39 35 30 27 23 21 20 19 17
74 84 69 84 30 28 26 27 15 16 15 9 21 22 11 9 16 21 26 37 24 52 55 65 80 91 107 116 118 111 106 97 90 83 79 76 71 60 54 51 51 49 46 42 37 33 28 26 22 20 19 18 16 14
66 84 52 44 23 36 17 33 25 25 8 14 19 7 7 12 15 28 17 26 31 70 78 82 94 100 111 113 110 106 100 98 100 93 80 71 64 60 53 48 44 43 38 33 30 28 24 22 22 20 19 17 15 13
81 60 40 36 41 15 23 24 14 15 10 9 10 9 7 14 21 9 10 16 62 67 66 78 83 88 95 101 100 95 89 84 81 78 72 69 64 60 53 46 38 35 31 28 27 26 26 25 23 22 19 16 14 12
44 32 26 16 33 15 13 12 10 6 8 8 8 8 7 16 6 9 10 12 48 69 79 78 82 81 80 84 81 78 71 62 58 58 51 47 49 45 43 39 35 32 31 31 30 29 28 27 24 22 19 18 16 16
27 32 32 29 33 17 19 16 22 15 10 13 15 12 11 6 8 16 8 16 46 61 66 63 57 56 58 58 62 61 53 42 35 34 31 31 32 35 35 37 39 39 35 32 30 29 28 26 24 22 21 21 21 17
23 16 32 66 46 30 12 12 16 9 16 19 12 14 10 11 15 10 16 30 28 31 31 31 38 37 43 43 38 36 29 24 23 22 22 25 32 34 34 34 36 29 32 31 29 26 24 24 25 26 27 26 23 19
16 32 37 46 24 49 25 12 17 23 14 21 27 16 23 21 13 9 14 15 17 17 20 19 14 16 23 26 30 27 21 17 17 19 22 27 33 36 36 35 31 28 29 30 26 25 25 25 27 29 28 25 22 19
9 34 58 25 22 11 18 27 23 28 46 42 20 14 13 16 12 14 15 15 16 17 16 13 14 17 23 25 22 18 17 19 23 30 36 43 49 43 39 34 31 31 30 27 25 27 29 30 30 28 25 23 20 16
10 40 16 22 25 30 26 41 38 48 54 39 26 19 18 14 11 8 10 12 14 17 15 13 15 18 18 17 16 19 24 27 29 29 37 41 37 37 33 32 31 32 30 29 33 37 36 34 32 30 28 24 19 13
8 39 10 8 8 7 25 26 25 29 36 26 19 17 19 20 18 14 10 3 7 9 11 11 11 11 11 13 16 18 25 31 25 25 29 30 31 28 32 31 32 31 30 33 35 35 34 33 31 29 26 21 15 8
21 12 14 22 6 16 26 11 14 10 10 9 8 13 14 11 10 11 32 18 8 6 7 8 10 11 12 15 19 20 21 35 35 27 26 26 29 32 33 35 33 33 36 39 38 36 34 31 30 28 23 17 10 6
7 11 9 7 5 6 10 13 9 7 14 9 11 10 11 11 8 17 26 33 24 20 16 13 13 15 17 18 20 22 23 22 31 39 32 24 29 36 39 38 35 38 39 39 37 35 35 32 28 23 17 11 9 13
Wind_Direction_850mb
127 137 178 205 219 225 238 260 279 297 298 255 238 226 264 357 10 5 13 52 82 99 145 177 139 138 149 169 154 150 112 131 95 171 180 180 201 199 183 230 177 176 172 190 192 212 258 226 134 214 303 334 68 89
136 128 146 119 107 217 232 236 240 253 276 292 273 230 234 284 318 319 325 59 86 100 139 151 196 211 189 187 147 168 28 160 161 145 197 123 181 169 190 224 181 222 204 189 201 209 244 212 217 264 351 351 47 14
148 125 131 145 134 77 63 210 231 239 257 311 317 181 205 260 297 301 328 133 114 132 143 171 197 197 200 195 183 170 224 188 161 149 149 155 226 151 188 228 228 233 217 244 250 230 242 259 253 238 254 259 272 284
150 136 85 60 65 58 43 31 66 223 242 250 193 194 213 237 255 267 272 222 152 151 141 169 171 180 203 210 206 190 179 187 177 194 182 182 227 198 227 285 233 217 165 207 250 268 277 264 250 235 223 234 289 291
158 145 112 92 51 29 51 9 331 311 277 237 230 232 236 236 256 281 286 259 193 204 151 150 177 202 205 204 214 209 185 179 164 168 185 218 215 198 230 293 244 203 220 215 248 239 232 252 233 226 231 279 286 281
150 155 147 122 90 40 36 21 22 21 325 270 257 246 249 242 247 269 295 231 189 180 183 125 133 149 195 196 194 205 196 192 187 191 212 231 215 217 261 255 256 237 231 235 245 268 253 256 228 238 270 268 266 279
150 141 131 128 100 42 35 24 23 17 8 336 249 241 238 247 232 211 215 182 177 183 202 91 73 167 166 167 164 165 171 192 209 221 232 239 192 200 244 249 219 242 242 245 243 248 248 247 252 254 261 269 270 271
167 165 153 122 83 63 37 27 24 24 15 6 339 194 185 197 244 257 234 197 177 208 207 121 129 175 173 162 139 179 180 192 214 253 262 271 262 231 254 241 249 253 251 248 247 249 248 252 245 254 262 260 266 272
181 181 187 199 188 71 43 37 31 20 21 7 0 200 184 206 225 230 199 201 212 221 206 161 158 175 164 145 128 147 172 198 253 246 125 262 217 227 235 251 245 246 232 241 231 234 234 240 253 249 262 264 267 268
196 198 206 217 250 275 299 348 16 11 5 5 0 60 134 147 154 143 135 168 170 198 220 164 141 135 152 160 122 125 158 217 234 287 306 224 255 254 254 253 256 255 240 239 237 227 224 231 253 272 265 260 263 270
212 218 222 229 236 247 259 276 317 348 5 346 289 178 175 170 174 174 163 107 283 274 197 155 172 138 171 153 161 174 145 87 243 162 263 257 268 246 255 262 241 242 241 244 247 248 254 259 256 259 261 261 265 268
219 225 231 234 236 239 242 243 270 262 274 271 257 174 168 169 138 91 233 310 206 227 172 153 153 130 146 152 126 152 140 146 233 337 254 259 250 252 237 246 211 204 207 224 238 245 246 247 248 248 251 259 267 269
228 235 241 244 246 244 238 230 257 282 297 275 165 156 164 170 52 164 208 250 258 177 176 161 141 147 131 148 85 140 157 214 131 203 237 235 256 254 236 228 225 224 227 229 230 234 239 244 249 251 255 262 266 266
233 236 241 245 243 235 224 236 241 260 262 222 187 241 181 217 239 194 189 190 175 166 156 141 117 136 127 93 115 137 59 294 243 250 237 244 244 233 232 235 225 224 236 239 240 245 251 255 259 258 260 261 265 268
234 236 237 237 234 224 217 229 229 230 227 227 192 233 213 229 237 215 204 173 163 155 149 124 100 140 82 102 36 114 98 244 221 231 230 239 210 219 230 225 228 237 236 241 249 257 263 264 265 263 258 260 266 267
231 231 230 229 220 203 207 208 210 213 238 235 229 232 215 206 220 208 204 190 168 160 152 133 116 100 195 133 156 214 168 223 236 215 234 221 217 227 224 228 231 228 235 247 259 270 272 270 268 261 257 265 269 268
213 226 236 224 201 196 205 201 201 216 225 232 250 230 220 256 233 193 191 177 171 166 188 143 155 201 109 150 238 195 211 217 214 224 228 224 222 230 236 232 231 242 252 263 273 274 274 268 261 263 271 273 268 266
215 229 225 200 191 192 197 200 221 227 233 230 224 237 223 227 226 213 197 181 170 191 168 201 140 183 204 198 229 223 229 239 245 244 244 234 238 243 242 238 240 250 260 263 265 265 263 265 271 278 274 269 265 261
223 220 214 205 198 183 195 210 216 244 226 221 229 235 230 234 232 232 212 196 193 187 182 175 215 208 220 220 236 250 248 254 263 270 271 267 253 254 245 246 254 258 259 259 260 265 269 274 277 273 267 261 253 250
216 218 211 210 200 186 213 216 203 236 221 212 220 217 217 231 236 231 221 206 197 191 208 214 220 232 227 239 253 265 274 280 274 270 270 271 269 260 259 259 257 255 252 256 262 269 274 273 269 261 252 244 239 242
203 206 206 197 194 196 221 218 211 229 217 203 207 194 205 228 227 215 214 206 195 220 242 231 242 249 253 258 263 268 271 272 272 277 283 283 278 271 261 253 251 249 253 260 267 267 264 261 254 246 237 232 229 230
198 195 181 190 189 200 233 227 215 183 202 194 178 187 190 199 207 199 196 194 225 235 236 243 246 253 258 260 264 267 273 276 277 276 276 276 273 270 265 258 249 252 258 262 258 257 252 244 236 227 221 216 215 222
189 184 185 187 192 204 234 195 191 194 180 183 160 180 219 211 199 173 234 224 238 244 248 250 254 259 261 265 265 268 272 277 279 280 281 278 273 265 257 257 257 256 251 248 244 236 228 219 210 205 203 205 217 231
190 179 187 183 193 208 176 188 185 152 123 153 163 224 206 192 168 195 254 258 252 254 253 256 259 258 260 261 265 273 278 282 281 281 279 269 263 258 255 253 246 237 237 228 214 204 199 197 196 197 203 210 215 215
180 189 188 187 193 154 173 161 154 171 182 172 178 236 184 160 183 233 227 252 249 248 249 251 254 256 262 270 275 278 281 284 283 281 278 266 254 246 237 228 227 222 213 202 197 194 193 193 198 199 200 198 194 184
200 191 176 190 193 168 189 150 181 168 151 183 215 129 150 157 207 249 216 232 234 240 245 250 257 261 263 267 274 281 285 279 275 269 264 244 233 226 228 224 212 201 195 193 196 197 198 197 196 195 193 183 172 170
202 166 187 202 186 165 104 91 138 145 173 197 161 163 159 208 234 244 229 234 229 233 243 251 254 264 267 272 278 282 282 271 253 253 230 220 216 215 212 205 192 188 191 193 193 197 202 199 194 184 176 170 170 173
185 171 187 188 192 196 184 158 165 193 185 151 137 175 184 201 226 201 208 208 214 222 218 224 235 270 278 290 287 287 278 246 224 210 205 198 191 185 183 182 184 188 188 184 190 198 197 190 181 174 172 173 169 160
185 172 184 187 202 180 203 196 206 204 171 167 176 190 207 189 188 197 201 216 221 216 214 240 273 298 290 284 278 261 228 213 206 194 189 182 178 180 179 179 186 185 179 181 193 187 180 175 174 171 170 167 164 162
194 180 200 175 199 204 212 210 222 208 199 200 190 156 142 141 150 190 216 217 215 225 247 268 269 268 268 263 250 223 208 204 203 208 203 196 183 186 184 182 183 181 180 190 191 182 179 177 173 173 171 169 170 171
323 188 173 158 200 204 207 195 182 171 176 172 169 160 143 140 135 77 43 275 250 251 247 248 257 259 251 230 216 217 213 202 201 202 204 201 197 184 183 185 182 184 190 188 179 177 176 174 175 175 171 169 172 190
338 338 230 193 167 130 142 133 124 109 106 106 88 104 117 105 79 54 17 16 352 308 293 270 248 240 231 220 210 205 208 204 199 193 194 202 206 194 182 182 186 186 185 179 177 176 175 174 173 174 175 177 192 249
323 0 42 95 107 135 146 105 78 78 53 70 60 73 67 84 94 34 22 17 16 4 341 308 272 253 241 232 222 213 206 202 206 212 215 207 200 187 182 184 182 184 181 179 178 176 175 174 177 179 181 201 251 289